1494046800.17,8419,16.38,73560.8,4.23,-3.87,-2.83,0,*49
1494046801.35,8420,16.38,73562.8,4.23,-3.95,-2.87,0,*44
1494046802.54,8421,16.38,73562.5,4.23,-3.95,-2.83,0,*41
1494046803.73,8422,16.38,73560.5,4.23,-3.95,-2.79,0,*47
1494046804.94,8423,16.38,73560.0,4.23,-3.91,-2.75,0,*4E
1494046806.12,8424,16.38,73564.3,4.23,-4.09,-2.87,0,*42
1494046807.31,8425,16.38,73560.5,4.23,-4.09,-2.95,0,*40
1494046808.49,8426,16.38,73558.5,4.23,-4.09,-2.87,0,*40
1494046809.67,8427,16.38,73560.3,4.23,-4.09,-2.95,0,*42
1494046810.86,8428,16.38,73562.5,4.23,-3.95,-2.83,0,*48
1494046812.07,8429,16.38,73560.3,4.23,-4.01,-2.87,0,*47
1494046813.29,8430,16.38,73560.5,4.23,-4.01,-2.95,0,*4C
1494046814.47,8431,16.38,73562.0,4.23,-4.25,-3.07,0,*41
1494046815.66,8432,16.38,73560.5,4.23,-4.21,-3.11,0,*41
1494046816.84,8433,16.38,73562.0,4.23,-4.09,-3.07,0,*4D
1494046818.05,8434,16.38,73564.0,4.23,-4.01,-2.87,0,*4B
1494046819.26,8435,16.38,73560.3,4.25,-4.05,-2.83,0,*4C
1494046820.47,8436,16.38,73560.0,4.23,-4.01,-2.83,0,*4D
1494046821.66,8437,16.38,73566.5,4.23,-3.95,-2.83,0,*46
1494046822.84,8438,16.38,73562.5,4.23,-4.25,-3.07,0,*48
1494046824.02,8439,16.38,73562.0,4.23,-4.13,-2.99,0,*4A
1494046825.21,8440,16.38,73564.8,4.23,-4.13,-3.07,0,*42
1494046826.39,8441,16.38,73560.5,4.23,-4.13,-2.99,0,*45
1494046827.57,8442,16.38,73562.3,4.23,-4.13,-3.07,0,*40
1494046828.75,8443,16.38,73562.0,4.23,-4.25,-3.07,0,*44
1494046829.94,8444,16.38,73562.3,4.23,-4.13,-3.07,0,*46
1494046831.12,8445,16.38,73566.0,4.23,-4.09,-2.99,0,*4A
1494046832.32,8446,16.38,73562.5,4.25,-4.17,-3.03,0,*42
1494046833.51,8447,16.38,73562.8,4.23,-4.13,-2.99,0,*43
1494046834.72,8448,16.38,73564.3,4.21,-4.09,-2.87,0,*4A
1494046835.92,8449,16.38,73562.3,4.25,-4.05,-2.83,0,*47
1494046837.1,8450,16.38,73562.8,4.23,-4.13,-2.95,0,*49
1494046838.29,8451,16.38,73562.3,4.23,-4.09,-2.99,0,*4F
1494046839.47,8452,16.38,73564.5,4.23,-4.13,-3.07,0,*41
1494046840.65,8453,16.38,73562.8,4.23,-4.25,-3.07,0,*45
1494046841.84,8454,16.38,73562.8,4.23,-4.13,-2.99,0,*41
1494046843.03,8455,16.38,73562.3,4.23,-4.21,-3.07,0,*47
1494046844.23,8456,16.38,73564.3,4.25,-4.09,-2.95,0,*42
1494046845.45,8457,16.38,73564.5,4.25,-4.21,-3.03,0,*47
1494046846.63,8458,16.38,73564.5,4.23,-4.25,-3.07,0,*4E
1494046847.84,8459,16.38,73562.3,4.25,-4.17,-2.95,0,*42
1494046849.02,8460,16.38,73560.0,4.23,-4.25,-3.07,0,*45
1494046850.21,8461,16.38,73566.5,4.23,-4.21,-3.07,0,*40
1494046851.41,8462,16.38,73562.0,4.25,-4.45,-3.27,0,*45
1494046852.59,8463,16.38,73564.5,4.23,-4.33,-3.19,0,*4E
1494046853.8,8464,16.38,73560.8,4.25,-4.21,-3.03,0,*47
1494046854.98,8465,16.38,73564.8,4.23,-4.37,-3.11,0,*44
1494046856.18,8466,16.38,73560.5,4.25,-4.17,-3.07,0,*44
1494046857.35,8467,16.38,73560.5,4.23,-4.37,-3.23,0,*47
1494046858.52,8468,16.38,73562.8,4.23,-4.37,-3.11,0,*49
1494046859.72,8469,16.38,73562.0,4.25,-4.29,-3.19,0,*49
1494046860.93,8470,16.38,73564.8,4.25,-4.33,-3.15,0,*46
1494046862.11,8471,16.38,73562.3,4.23,-4.33,-3.19,0,*4D
1494046863.31,8472,16.31,73562.0,4.25,-4.33,-3.15,0,*44
1494046864.51,8473,16.38,73562.8,4.25,-4.29,-3.07,0,*4D
1494046865.7,8474,16.38,73560.3,4.23,-4.25,-3.19,0,*4F
1494046866.91,8475,16.38,73562.3,4.25,-4.21,-3.07,0,*43
1494046868.12,8476,16.38,73562.8,4.25,-4.33,-3.27,0,*41
1494046869.32,8477,16.38,73562.0,4.25,-4.29,-3.15,0,*4A
1494046870.53,8478,16.38,73560.3,4.25,-4.21,-3.07,0,*4E
1494046871.73,8479,16.38,73562.3,4.25,-4.29,-3.19,0,*48
1494046872.9,8480,16.38,73564.0,4.27,-4.45,-3.31,0,*4C
1494046874.07,8481,16.38,73562.3,4.27,-4.29,-3.15,0,*41
1494046875.27,8482,16.38,73562.8,4.25,-4.45,-3.39,0,*44
1494046876.46,8483,16.38,73562.0,4.25,-4.49,-3.39,0,*49
1494046877.63,8484,16.38,73566.0,4.23,-4.49,-3.23,0,*43
1494046878.83,8485,16.38,73562.3,4.25,-4.37,-3.19,0,*44
1494046880.02,8486,16.38,73566.3,4.25,-4.45,-3.31,0,*48
1494046881.22,8487,16.38,73560.8,4.25,-4.45,-3.39,0,*41
1494046882.39,8488,16.31,73560.5,4.29,-4.37,-3.19,0,*45
1494046883.56,8489,16.38,73560.0,4.27,-4.37,-3.19,0,*4A
1494046884.73,8490,16.31,73560.0,4.27,-4.45,-3.19,0,*47
1494046885.9,8491,16.38,73562.3,4.27,-4.37,-3.19,0,*43
1494046887.07,8492,16.38,73562.8,4.27,-4.37,-3.19,0,*40
1494046888.24,8493,16.38,73566.3,4.27,-4.37,-3.27,0,*4C
1494046889.42,8494,16.38,73564.5,4.29,-4.37,-3.19,0,*48
1494046890.6,8495,16.38,73564.8,4.27,-4.33,-3.19,0,*43
1494046891.76,8496,16.38,73566.8,4.27,-4.45,-3.31,0,*4B
1494046892.93,8497,16.38,73566.0,4.27,-4.45,-3.31,0,*4A
1494046894.1,8498,16.38,73564.5,4.27,-4.45,-3.39,0,*4D
1494046895.27,8499,16.38,73564.3,4.27,-4.37,-3.19,0,*4B
1494046896.47,8500,16.31,73560.0,4.27,-4.57,-3.51,0,*40
1494046897.66,8501,16.38,73562.5,4.27,-4.49,-3.51,0,*4E
1494046898.84,8502,16.38,73564.8,4.29,-4.45,-3.39,0,*41
1494046900.02,8503,16.38,73566.3,4.29,-4.33,-3.23,0,*4A
1494046901.19,8504,16.38,73564.3,4.27,-4.37,-3.27,0,*43
1494046902.37,8505,16.31,73562.0,4.29,-4.41,-3.15,0,*4C
1494046903.56,8506,16.38,73564.0,4.29,-4.33,-3.23,0,*4F
1494046904.72,8507,16.38,73564.0,4.27,-4.45,-3.31,0,*42
1494046905.91,8508,16.38,73562.5,4.29,-4.41,-3.27,0,*40
1494046907.08,8509,16.38,73564.8,4.27,-4.37,-3.39,0,*41
1494046908.26,8510,16.38,73562.8,4.29,-4.41,-3.23,0,*4D
1494046909.47,8511,16.38,73566.0,4.31,-4.29,-3.19,0,*42
1494046910.64,8512,16.38,73564.0,4.27,-4.49,-3.31,0,*4A
1494046911.82,8513,16.38,73562.3,4.29,-4.45,-3.35,0,*4D
1494046913.0,8514,16.38,73564.3,4.29,-4.41,-3.27,0,*4D
1494046914.18,8515,16.38,73562.5,4.29,-4.33,-3.23,0,*4D
1494046915.35,8516,16.38,73566.8,4.27,-4.45,-3.39,0,*4A
1494046916.53,8517,16.38,73566.0,4.29,-4.53,-3.39,0,*42
1494046917.74,8518,16.38,73564.0,4.29,-4.57,-3.47,0,*40
1494046918.92,8519,16.38,73564.0,4.29,-4.45,-3.39,0,*4B
1494046920.09,8520,16.38,73564.5,4.27,-4.45,-3.35,0,*43
1494046921.27,8521,16.38,73564.0,4.29,-4.41,-3.27,0,*4B
1494046922.48,8522,16.38,73566.3,4.31,-4.37,-3.31,0,*47
1494046923.69,8523,16.38,73564.5,4.31,-4.29,-3.31,0,*49
1494046924.89,8524,16.38,73566.3,4.31,-4.29,-3.23,0,*4D
1494046926.09,8525,16.31,73560.0,4.31,-4.37,-3.23,0,*43
1494046927.28,8526,16.38,73566.5,4.29,-4.41,-3.35,0,*4F
1494046928.49,8527,16.38,73566.3,4.31,-4.41,-3.35,0,*47
1494046929.69,8528,16.38,73564.8,4.31,-4.41,-3.23,0,*4F
1494046930.89,8529,16.31,73562.8,4.31,-4.37,-3.23,0,*4F
1494046932.1,8530,16.38,73566.3,4.31,-4.29,-3.23,0,*48
1494046933.3,8531,16.31,73560.3,4.29,-4.53,-3.47,0,*4F
1494046934.5,8532,16.31,73560.8,4.29,-4.53,-3.51,0,*4B
1494046935.73,8533,16.31,73562.5,4.31,-4.49,-3.51,0,*48
1494046936.96,8534,16.31,73562.3,4.31,-4.65,-3.59,0,*49
1494046938.19,8535,16.38,73566.0,4.31,-4.65,-3.47,0,*47
1494046939.42,8536,16.38,73564.8,4.31,-4.65,-3.51,0,*43
1494046940.63,8537,16.38,73566.0,4.33,-4.65,-3.59,0,*48
1494046941.86,8538,16.31,73564.3,4.31,-4.61,-3.47,0,*4E
1494046943.11,8539,16.38,73564.5,4.31,-4.73,-3.63,0,*4A
1494046944.35,8540,16.38,73566.3,4.31,-4.77,-3.63,0,*40
1494046945.6,8541,16.38,73564.0,4.31,-4.77,-3.71,0,*42
1494046946.83,8542,16.38,73564.3,4.31,-4.61,-3.51,0,*44
1494046948.07,8543,16.38,73566.3,4.31,-4.61,-3.59,0,*4D
1494046949.3,8544,16.38,73566.5,4.31,-4.65,-3.59,0,*4E
1494046950.53,8545,16.31,73564.5,4.31,-4.53,-3.47,0,*45
1494046951.75,8546,16.31,73564.3,4.31,-4.49,-3.47,0,*4D
1494046952.96,8547,16.31,73564.8,4.31,-4.49,-3.35,0,*49
1494046954.16,8548,16.31,73564.0,4.29,-4.53,-3.43,0,*45
1494046955.39,8549,16.31,73566.5,4.31,-4.61,-3.47,0,*48
1494046956.62,8550,16.31,73564.0,4.31,-4.53,-3.51,0,*46
1494046957.82,8551,16.38,73566.0,4.33,-4.61,-3.59,0,*4C
1494046959.06,8552,16.38,73564.8,4.31,-4.61,-3.59,0,*4D
1494046960.28,8553,16.31,73564.3,4.31,-4.53,-3.47,0,*42
1494046961.48,8554,16.38,73564.3,4.33,-4.53,-3.47,0,*47
1494046962.71,8555,16.31,73562.3,4.31,-4.61,-3.63,0,*43
1494046963.94,8556,16.31,73560.3,4.31,-4.65,-3.51,0,*45
1494046965.15,8557,16.38,73564.0,4.33,-4.53,-3.51,0,*43
1494046966.35,8558,16.38,73564.3,4.33,-4.61,-3.59,0,*45
1494046967.59,8559,16.31,73562.8,4.31,-4.65,-3.51,0,*4A
1494046968.79,8560,16.38,73564.0,4.33,-4.61,-3.59,0,*4E
1494046970.0,8561,16.31,73562.8,4.33,-4.65,-3.51,0,*43
1494046971.2,8562,16.31,73562.8,4.33,-4.61,-3.63,0,*45
1494046972.42,8563,16.31,73560.0,4.33,-4.77,-3.63,0,*43
1494046973.62,8564,16.38,73564.8,4.33,-4.61,-3.47,0,*45
1494046974.82,8565,16.38,73564.5,4.33,-4.53,-3.51,0,*42
1494046976.03,8566,16.31,73562.3,4.33,-4.53,-3.51,0,*41
1494046977.23,8567,16.31,73566.0,4.33,-4.53,-3.51,0,*40
1494046978.45,8568,16.31,73564.3,4.33,-4.73,-3.63,0,*4C
1494046979.67,8569,16.38,73566.3,4.33,-4.77,-3.71,0,*4A
1494046980.89,8570,16.38,73564.0,4.33,-4.77,-3.71,0,*42
1494046982.1,8571,16.38,73564.5,4.33,-4.65,-3.59,0,*4A
1494046983.32,8572,16.38,73564.0,4.33,-4.77,-3.63,0,*43
1494046984.53,8573,16.38,73564.3,4.33,-4.65,-3.59,0,*48
1494046985.75,8574,16.31,73560.8,4.33,-4.73,-3.63,0,*41
1494046986.96,8575,16.31,73562.8,4.33,-4.65,-3.59,0,*4E
1494046988.18,8576,16.38,73562.3,4.33,-4.77,-3.71,0,*44
1494046989.4,8577,16.38,73562.3,4.33,-4.73,-3.63,0,*42
1494046990.65,8578,16.31,73562.5,4.35,-4.69,-3.59,0,*49
1494046991.89,8579,16.31,73560.5,4.35,-4.81,-3.67,0,*43
1494046993.13,8580,16.38,73566.0,4.35,-4.81,-3.67,0,*45
1494046994.38,8581,16.31,73562.3,4.35,-4.73,-3.67,0,*49
1494046995.6,8582,16.31,73562.8,4.35,-4.93,-3.91,0,*4D
1494046996.83,8583,16.31,73562.3,4.35,-4.93,-3.79,0,*4A
1494046998.07,8584,16.31,73560.5,4.35,-4.73,-3.71,0,*4B
1494046999.31,8585,16.31,73560.8,4.35,-4.73,-3.67,0,*4D
1494047000.54,8586,16.31,73562.3,4.33,-4.73,-3.63,0,*4C
1494047001.76,8587,16.31,73564.3,4.33,-4.77,-3.71,0,*4A
1494047002.98,8588,16.38,73566.3,4.33,-4.73,-3.63,0,*42
1494047004.22,8589,16.31,73564.5,4.35,-4.81,-3.67,0,*4C
1494047005.47,8590,16.31,73566.0,4.35,-4.73,-3.67,0,*49
1494047006.71,8591,16.31,73562.8,4.35,-4.73,-3.67,0,*48
1494047007.96,8592,16.31,73562.3,4.35,-4.73,-3.59,0,*46
1494047009.21,8593,16.38,73566.5,4.35,-4.73,-3.67,0,*4A
1494047010.45,8594,16.31,73562.8,4.35,-4.73,-3.67,0,*4D
1494047011.67,8595,16.31,73562.0,4.39,-4.81,-3.83,0,*47
1494047012.9,8596,16.31,73562.8,4.35,-5.11,-4.09,0,*45
1494047014.13,8597,16.31,73562.5,4.35,-5.11,-4.05,0,*48
1494047015.36,8598,16.31,73562.0,4.35,-5.07,-3.91,0,*4A
1494047016.59,8599,16.31,73562.3,4.35,-5.11,-4.05,0,*46
1494047017.79,8600,16.31,73562.8,4.35,-4.99,-3.91,0,*4E
1494047019.02,8601,16.31,73560.5,4.35,-4.93,-3.91,0,*45
1494047020.25,8602,16.31,73566.0,4.35,-5.11,-4.09,0,*4B
1494047021.48,8603,16.31,73562.5,4.35,-5.15,-4.09,0,*4E
1494047022.72,8604,16.31,73562.8,4.33,-5.03,-4.01,0,*40
1494047023.93,8605,16.38,73564.3,4.33,-5.03,-3.87,0,*48
1494047025.16,8606,16.31,73560.3,4.33,-5.11,-4.01,0,*41
1494047026.37,8607,16.31,73562.3,4.33,-5.11,-4.13,0,*43
1494047027.58,8608,16.31,73562.3,4.33,-5.15,-4.09,0,*43
1494047028.79,8609,16.31,73560.5,4.33,-5.19,-4.09,0,*4E
1494047030.03,8610,16.31,73560.8,4.33,-5.15,-4.01,0,*42
1494047031.26,8611,16.31,73562.0,4.33,-5.11,-4.01,0,*47
1494047032.46,8612,16.31,73562.8,4.33,-4.99,-4.01,0,*45
1494047033.68,8613,16.31,73562.5,4.33,-5.03,-3.83,0,*4B
1494047034.91,8614,16.38,73564.8,4.31,-5.11,-4.13,0,*43
1494047036.15,8615,16.31,73564.3,4.31,-5.11,-4.13,0,*42
1494047037.35,8616,16.31,73560.5,4.33,-5.11,-4.09,0,*48
1494047038.56,8617,16.31,73562.5,4.33,-5.11,-4.13,0,*42
1494047039.78,8618,16.31,73560.3,4.33,-5.19,-4.21,0,*44
1494047041.02,8619,16.31,73564.5,4.31,-5.15,-4.09,0,*41
1494047042.26,8620,16.31,73562.3,4.33,-5.03,-4.01,0,*46
1494047043.47,8621,16.31,73560.0,4.33,-5.15,-3.95,0,*4A
1494047044.68,8622,16.31,73564.0,4.33,-5.15,-4.09,0,*4B
1494047045.89,8623,16.31,73564.5,4.33,-5.15,-4.09,0,*4A
1494047047.13,8624,16.31,73566.5,4.31,-5.15,-4.13,0,*44
1494047048.38,8625,16.31,73562.8,4.31,-5.31,-4.25,0,*46
1494047049.59,8626,16.31,73560.3,4.33,-5.27,-4.13,0,*45
1494047050.83,8627,16.31,73566.3,4.31,-5.31,-4.25,0,*44
1494047052.05,8628,16.31,73562.0,4.33,-5.31,-4.29,0,*45
1494047053.29,8629,16.31,73562.8,4.31,-5.27,-4.29,0,*41
1494047054.53,8630,16.31,73560.5,4.31,-5.27,-4.21,0,*41
1494047055.77,8631,16.31,73560.5,4.31,-5.19,-4.25,0,*49
1494047057.01,8632,16.31,73562.8,4.31,-5.15,-4.09,0,*48
1494047058.22,8633,16.31,73564.5,4.33,-5.19,-4.09,0,*47
1494047059.46,8634,16.38,73566.8,4.31,-5.19,-4.21,0,*48
1494047060.7,8635,16.31,73562.5,4.31,-5.15,-4.09,0,*4F
1494047061.94,8636,16.31,73560.3,4.31,-5.15,-4.09,0,*4C
1494047063.17,8637,16.31,73562.0,4.31,-5.11,-3.95,0,*4B
1494047064.39,8638,16.31,73560.5,4.33,-5.15,-4.21,0,*4A
1494047065.64,8639,16.31,73562.8,4.31,-5.31,-4.21,0,*4F
1494047066.9,8640,16.31,73564.5,4.31,-5.15,-4.01,0,*45
1494047068.11,8641,16.31,73562.3,4.33,-5.15,-3.95,0,*4C
1494047069.35,8642,16.31,73562.8,4.33,-5.11,-4.01,0,*41
1494047070.61,8643,16.31,73562.8,4.31,-5.15,-4.01,0,*46
1494047071.85,8644,16.31,73562.5,4.33,-5.03,-4.01,0,*44
1494047073.06,8645,16.31,73560.8,4.33,-5.03,-3.95,0,*4F
1494047074.3,8646,16.31,73562.0,4.31,-5.03,-3.95,0,*4E
1494047075.54,8647,16.31,73560.0,4.31,-5.03,-3.95,0,*4F
1494047076.75,8648,16.31,73560.0,4.33,-5.03,-3.87,0,*41
1494047077.95,8649,16.31,73564.5,4.31,-4.99,-3.83,0,*44
1494047079.16,8650,16.31,73560.0,4.33,-5.03,-3.83,0,*4C
1494047080.37,8651,16.31,73564.0,4.33,-5.11,-3.87,0,*4A
1494047081.63,8652,16.31,73562.5,4.31,-5.03,-4.01,0,*41
1494047082.84,8653,16.31,73560.8,4.33,-5.11,-3.87,0,*48
1494047084.04,8654,16.31,73564.5,4.33,-5.11,-3.95,0,*4C
1494047085.28,8655,16.31,73562.3,4.33,-5.15,-4.01,0,*43
1494047086.49,8656,16.31,73566.5,4.33,-5.11,-4.09,0,*4C
1494047087.72,8657,16.31,73564.3,4.33,-5.15,-4.01,0,*41
1494047088.95,8658,16.31,73562.5,4.35,-5.11,-3.95,0,*46
1494047090.19,8659,16.31,73564.5,4.33,-5.15,-4.01,0,*4F
1494047091.4,8660,16.31,73566.5,4.33,-5.19,-4.13,0,*4A
1494047092.61,8661,16.31,73560.3,4.35,-5.39,-4.37,0,*49
1494047093.8,8662,16.31,73562.5,4.33,-5.39,-4.41,0,*4D
1494047095.01,8663,16.31,73560.5,4.35,-5.35,-4.25,0,*44
1494047096.21,8664,16.31,73564.3,4.35,-5.35,-4.25,0,*43
1494047097.45,8665,16.31,73564.0,4.35,-5.27,-4.21,0,*45
1494047098.69,8666,16.31,73564.5,4.35,-5.15,-4.21,0,*47
1494047099.92,8667,16.31,73566.5,4.35,-5.23,-4.17,0,*46
1494047101.15,8668,16.31,73560.3,4.35,-5.23,-4.17,0,*49
1494047102.39,8669,16.31,73562.3,4.35,-5.23,-4.21,0,*4D
1494047103.6,8670,16.31,73562.5,4.35,-5.35,-4.21,0,*42
1494047104.84,8671,16.31,73564.0,4.35,-5.27,-4.21,0,*40
1494047106.07,8672,16.31,73562.3,4.35,-5.27,-4.25,0,*47
1494047107.32,8673,16.31,73560.8,4.39,-5.23,-4.21,0,*4A
1494047108.55,8674,16.31,73562.3,4.39,-5.27,-4.21,0,*49
1494047109.78,8675,16.31,73564.8,4.35,-5.27,-4.33,0,*47
1494047111.02,8676,16.31,73562.8,4.35,-5.27,-4.25,0,*43
1494047112.25,8677,16.31,73566.5,4.35,-5.23,-4.17,0,*47
1494047113.48,8678,16.31,73564.5,4.35,-5.15,-4.17,0,*4D
1494047114.71,8679,16.31,73562.8,4.35,-5.27,-4.21,0,*48
1494047115.95,8680,16.31,73560.8,4.35,-5.23,-4.21,0,*4A
1494047117.16,8681,16.31,73566.0,4.35,-5.39,-4.25,0,*44
1494047118.4,8682,16.31,73560.8,4.35,-5.27,-4.21,0,*4C
1494047119.64,8683,16.31,73562.8,4.35,-5.23,-4.25,0,*4D
1494047120.85,8684,16.31,73562.0,4.39,-5.35,-4.25,0,*41
1494047122.08,8685,16.31,73560.0,4.39,-5.27,-4.33,0,*44
1494047123.28,8686,16.31,73564.5,4.35,-5.47,-4.45,0,*4C
1494047124.49,8687,16.31,73560.8,4.39,-5.39,-4.33,0,*49
1494047125.72,8688,16.31,73562.3,4.39,-5.27,-4.33,0,*49
1494047126.93,8689,16.31,73562.5,4.39,-5.47,-4.37,0,*4A
1494047128.13,8690,16.31,73560.8,4.39,-5.39,-4.37,0,*4B
1494047129.34,8691,16.31,73560.5,4.39,-5.35,-4.25,0,*45
1494047130.58,8692,16.31,73562.8,4.39,-5.27,-4.21,0,*41
1494047131.79,8693,16.31,73562.3,4.39,-5.39,-4.37,0,*48
1494047133.0,8694,16.31,73562.0,4.39,-5.35,-4.25,0,*40
1494047134.21,8695,16.31,73566.5,4.39,-5.47,-4.37,0,*47
1494047135.39,8696,16.31,73560.8,4.41,-5.43,-4.41,0,*4E
1494047136.62,8697,16.31,73560.8,4.35,-5.65,-4.57,0,*4F
1494047137.88,8698,16.31,73562.8,4.39,-5.73,-4.69,0,*46
1494047139.13,8699,16.31,73564.3,4.39,-5.77,-4.73,0,*48
1494047140.39,8700,16.31,73562.5,4.39,-5.77,-4.73,0,*49
1494047141.62,8701,16.31,73562.0,4.39,-5.73,-4.61,0,*4F
1494047142.86,8702,16.31,73562.3,4.35,-5.65,-4.61,0,*47
1494047144.09,8703,16.31,73564.3,4.35,-5.61,-4.49,0,*48
1494047145.34,8704,16.31,73560.8,4.39,-5.77,-4.73,0,*4D
1494047146.6,8705,16.31,73564.3,4.35,-5.77,-4.81,0,*4D
1494047147.86,8706,16.31,73564.3,4.35,-5.89,-4.93,0,*4C
1494047149.1,8707,16.31,73564.8,4.33,-5.89,-4.85,0,*4C
1494047150.37,8708,16.31,73566.5,4.35,-5.85,-4.81,0,*4D
1494047151.63,8709,16.31,73560.3,4.35,-5.85,-4.73,0,*41
1494047152.89,8710,16.31,73562.5,4.35,-5.77,-4.69,0,*4F
1494047154.12,8711,16.31,73564.5,4.39,-5.61,-4.57,0,*48
1494047155.36,8712,16.31,73562.8,4.35,-5.65,-4.57,0,*43
1494047156.62,8713,16.31,73562.8,4.35,-5.85,-4.73,0,*4A
1494047157.88,8714,16.31,73566.5,4.35,-5.85,-4.73,0,*4D
1494047159.14,8715,16.31,73562.0,4.35,-5.77,-4.69,0,*4A
1494047160.4,8716,16.31,73564.5,4.35,-5.89,-4.81,0,*4E
1494047161.66,8717,16.31,73566.3,4.35,-5.85,-4.69,0,*45
1494047162.91,8718,16.31,73562.5,4.31,-5.81,-4.65,0,*46
1494047164.12,8719,16.31,73562.5,4.33,-5.69,-4.65,0,*43
1494047165.36,8720,16.31,73564.5,4.33,-5.81,-4.77,0,*4C
1494047166.58,8721,16.31,73564.0,4.33,-5.69,-4.53,0,*4D
1494047167.81,8722,16.31,73562.0,4.33,-5.81,-4.73,0,*4A
1494047169.05,8723,16.31,73562.8,4.33,-5.89,-4.77,0,*47
1494047170.29,8724,16.31,73560.0,4.33,-5.77,-4.73,0,*45
1494047171.53,8725,16.31,73562.5,4.31,-5.65,-4.53,0,*47
1494047172.76,8726,16.31,73562.0,4.35,-5.73,-4.57,0,*43
1494047173.97,8727,16.31,73566.3,4.33,-5.77,-4.65,0,*41
1494047175.19,8728,16.31,73564.0,4.33,-5.77,-4.61,0,*4A
1494047176.42,8729,16.31,73564.3,4.35,-5.61,-4.49,0,*40
1494047177.66,8730,16.31,73564.5,4.33,-5.77,-4.73,0,*40
1494047178.89,8731,16.31,73566.5,4.33,-5.89,-4.73,0,*40
1494047180.13,8732,16.31,73560.5,4.33,-5.77,-4.73,0,*42
1494047181.37,8733,16.31,73560.8,4.33,-5.81,-4.73,0,*4A
1494047182.63,8734,16.31,73562.8,4.31,-5.81,-4.77,0,*4B
1494047183.87,8735,16.31,73564.0,4.33,-5.77,-4.73,0,*45
1494047185.08,8736,16.31,73562.8,4.33,-5.77,-4.65,0,*41
1494047186.32,8737,16.31,73566.0,4.33,-5.77,-4.77,0,*43
1494047187.56,8738,16.31,73564.3,4.33,-5.81,-4.89,0,*44
1494047188.8,8739,16.31,73562.8,4.33,-5.89,-4.73,0,*48
1494047190.02,8740,16.31,73564.3,4.33,-5.77,-4.65,0,*40
1494047191.25,8741,16.31,73560.8,4.33,-5.77,-4.73,0,*46
1494047192.47,8742,16.31,73566.8,4.33,-5.81,-4.65,0,*4B
1494047193.71,8743,16.31,73566.0,4.33,-5.81,-4.77,0,*49
1494047194.95,8744,16.31,73560.3,4.33,-5.89,-4.85,0,*4B
1494047196.21,8745,16.31,73564.0,4.31,-5.93,-4.77,0,*4E
1494047197.45,8746,16.31,73566.3,4.33,-5.89,-4.77,0,*44
1494047198.68,8747,16.31,73564.5,4.33,-5.89,-4.77,0,*45
1494047199.95,8748,16.31,73562.3,4.31,-5.89,-4.85,0,*45
1494047201.19,8749,16.31,73560.5,4.33,-5.93,-4.85,0,*4D
1494047202.44,8750,16.31,73566.5,4.33,-5.89,-4.89,0,*42
1494047203.68,8751,16.31,73560.3,4.33,-5.93,-4.85,0,*44
1494047204.95,8752,16.31,73562.5,4.31,-5.93,-4.77,0,*48
1494047206.21,8753,16.31,73564.0,4.31,-5.93,-4.85,0,*44
1494047207.49,8754,16.31,73564.5,4.31,-5.93,-4.85,0,*43
1494047208.72,8755,16.31,73562.3,4.33,-5.89,-4.77,0,*46
1494047209.99,8756,16.31,73562.0,4.31,-5.89,-4.73,0,*43
1494047211.23,8757,16.31,73566.3,4.31,-5.89,-4.65,0,*45
1494047212.44,8758,16.31,73564.0,4.33,-5.77,-4.65,0,*49
1494047213.68,8759,16.31,73566.5,4.33,-5.81,-4.77,0,*42
1494047214.94,8760,16.31,73560.5,4.31,-5.81,-4.73,0,*4E
1494047216.19,8761,16.31,73564.0,4.31,-5.81,-4.61,0,*4C
1494047217.43,8762,16.31,73560.3,4.33,-5.81,-4.73,0,*4E
1494047218.69,8763,16.31,73566.8,4.35,-5.85,-4.81,0,*40
1494047219.95,8764,16.31,73562.3,4.31,-5.89,-4.73,0,*42
1494047221.17,8765,16.25,73560.0,4.33,-5.89,-4.65,0,*46
1494047222.41,8766,16.31,73566.8,4.33,-5.89,-4.85,0,*4B
1494047223.62,8767,16.31,73564.0,4.33,-5.97,-4.89,0,*49
1494047224.87,8768,16.31,73562.3,4.31,-5.97,-4.85,0,*48
1494047226.1,8769,16.31,73562.3,4.33,-5.89,-4.77,0,*49
1494047227.34,8770,16.31,73560.8,4.33,-5.89,-4.85,0,*4C
1494047228.61,8771,16.31,73564.3,4.31,-5.81,-4.77,0,*4A
1494047229.85,8772,16.31,73564.3,4.31,-6.05,-5.03,0,*44
1494047231.09,8773,16.31,73562.3,4.31,-6.05,-4.89,0,*46
1494047232.35,8774,16.31,73566.8,4.31,-5.93,-4.77,0,*4C
1494047233.6,8775,16.31,73560.0,4.33,-5.93,-4.85,0,*42
1494047234.87,8776,16.31,73562.8,4.31,-5.93,-4.85,0,*43
1494047236.11,8777,16.31,73566.5,4.33,-5.93,-4.77,0,*4D
1494047237.35,8778,16.31,73560.8,4.33,-5.93,-4.85,0,*4F
1494047238.59,8779,16.31,73560.5,4.33,-5.93,-4.85,0,*4E
1494047239.78,8780,16.31,73560.5,4.33,-5.97,-4.99,0,*41
1494047240.99,8781,16.31,73564.0,4.33,-5.97,-4.89,0,*41
1494047242.17,8782,16.31,73562.3,4.33,-6.05,-4.99,0,*4B
1494047243.44,8783,16.25,73562.3,4.31,-6.19,-5.11,0,*44
1494047244.66,8784,16.31,73560.8,4.33,-6.09,-5.03,0,*43
1494047245.9,8785,16.31,73566.0,4.33,-6.23,-5.19,0,*41
1494047247.14,8786,16.31,73564.5,4.33,-6.23,-5.19,0,*42
1494047248.36,8787,16.31,73562.3,4.33,-6.31,-5.27,0,*4D
1494047249.58,8788,16.31,73564.3,4.33,-6.31,-5.27,0,*42
1494047250.85,8789,16.31,73566.0,4.31,-6.23,-5.27,0,*42
1494047252.11,8790,16.31,73564.0,4.31,-6.23,-5.19,0,*47
1494047253.36,8791,16.31,73566.3,4.31,-6.31,-5.27,0,*48
1494047254.62,8792,16.31,73564.5,4.31,-6.23,-5.19,0,*45
1494047255.89,8793,16.31,73564.8,4.31,-6.19,-5.11,0,*45
1494047257.13,8794,16.31,73568.8,4.33,-6.23,-5.19,0,*41
1494047258.37,8795,16.31,73566.0,4.33,-6.23,-5.19,0,*40
1494047259.64,8796,16.31,73566.0,4.31,-6.19,-5.19,0,*48
1494047260.86,8797,16.25,73558.8,4.33,-6.31,-5.27,0,*4C
1494047262.08,8798,16.31,73564.5,4.29,-6.35,-5.31,0,*4B
1494047263.32,8799,16.31,73564.3,4.29,-6.27,-5.15,0,*4F
1494047264.56,8800,16.31,73564.8,4.29,-6.27,-5.23,0,*45
1494047265.74,8801,16.31,73564.0,4.29,-6.39,-5.35,0,*4C
1494047266.93,8802,16.31,73566.8,4.29,-6.47,-5.35,0,*46
1494047268.13,8803,16.31,73564.8,4.27,-6.39,-5.31,0,*44
1494047269.35,8804,16.31,73564.0,4.29,-6.39,-5.31,0,*4D
1494047270.57,8805,16.25,73560.5,4.29,-6.35,-5.31,0,*40
1494047271.81,8806,16.31,73564.8,4.29,-6.23,-5.15,0,*42
1494047273.02,8807,16.31,73564.3,4.29,-6.13,-5.15,0,*40
1494047274.26,8808,16.31,73564.8,4.29,-6.23,-5.15,0,*4C
1494047275.46,8809,16.31,73566.5,4.27,-6.27,-5.35,0,*45
1494047276.68,8810,16.31,73564.8,4.29,-6.35,-5.15,0,*42
1494047277.92,8811,16.25,73562.8,4.29,-6.27,-5.23,0,*45
1494047279.14,8812,16.31,73564.3,4.29,-6.35,-5.31,0,*46
1494047280.32,8813,16.31,73564.3,4.27,-6.39,-5.39,0,*4D
1494047281.53,8814,16.31,73564.5,4.29,-6.47,-5.31,0,*45
1494047282.73,8815,16.31,73564.3,4.29,-6.51,-5.43,0,*46
1494047283.94,8816,16.31,73564.3,4.29,-6.39,-5.23,0,*4D
1494047285.16,8817,16.31,73566.5,4.29,-6.31,-5.27,0,*40
1494047286.4,8818,16.25,73560.5,4.29,-6.27,-5.31,0,*4F
1494047287.59,8819,16.31,73564.0,4.29,-6.39,-5.35,0,*45
1494047288.76,8820,16.31,73564.3,4.27,-6.55,-5.39,0,*47
1494047289.94,8821,16.31,73564.8,4.27,-6.43,-5.39,0,*41
1494047291.13,8822,16.31,73566.0,4.27,-6.51,-5.39,0,*41
1494047292.31,8823,16.25,73562.8,4.27,-6.51,-5.39,0,*40
1494047293.49,8824,16.31,73562.3,4.27,-6.43,-5.39,0,*44
1494047294.67,8825,16.31,73562.0,4.27,-6.51,-5.39,0,*46
1494047295.89,8826,16.25,73560.3,4.29,-6.35,-5.31,0,*41
1494047297.11,8827,16.31,73564.0,4.29,-6.35,-5.31,0,*40
1494047298.29,8828,16.31,73564.8,4.27,-6.43,-5.35,0,*44
1494047299.47,8829,16.31,73560.8,4.27,-6.39,-5.35,0,*48
1494047300.64,8830,16.31,73564.3,4.27,-6.39,-5.35,0,*40
1494047301.82,8831,16.31,73562.3,4.27,-6.43,-5.35,0,*4C
1494047303.03,8832,16.31,73564.5,4.27,-6.39,-5.19,0,*4C
1494047304.24,8833,16.31,73564.8,4.27,-6.31,-5.27,0,*48
1494047305.42,8834,16.31,73566.3,4.27,-6.43,-5.35,0,*49
1494047306.63,8835,16.31,73564.3,4.27,-6.39,-5.27,0,*46
1494047307.83,8836,16.31,73564.5,4.27,-6.39,-5.27,0,*45
1494047309.04,8837,16.31,73562.8,4.27,-6.31,-5.27,0,*4C
1494047310.25,8838,16.31,73566.5,4.25,-6.43,-5.35,0,*47
1494047311.43,8839,16.25,73564.3,4.27,-6.31,-5.35,0,*41
1494047312.61,8840,16.25,73562.5,4.27,-6.43,-5.35,0,*4A
1494047313.82,8841,16.31,73564.0,4.27,-6.31,-5.19,0,*40
1494047315.05,8842,16.31,73566.8,4.25,-6.39,-5.27,0,*44
1494047316.23,8843,16.25,73562.3,4.27,-6.55,-5.47,0,*4B
1494047317.44,8844,16.25,73564.5,4.27,-6.39,-5.27,0,*40
1494047318.62,8845,16.25,73562.0,4.27,-6.43,-5.35,0,*4F
1494047319.83,8846,16.25,73566.0,4.27,-6.43,-5.27,0,*4F
1494047321.04,8847,16.25,73562.3,4.27,-6.43,-5.27,0,*4E